Regional Weather Roundup
Issued by NWS

Home | Current Version | Previous Version | Graphics & Text | Print | Product List | Glossary On
Versions: 1 2 3 4 5 6 7 8 9 10 11 12 13 14 15 16 17 18 19 20 21 22 23 24 25 26 27 28 29 30 31 32 33 34 35 36 37 38 39 40 41 42 43 44 45 46 47 48 49 50
000
ASUS45 KBOU 031210
RWRCO

WEATHER ROUNDUP FOR COLORADO
NATIONAL WEATHER SERVICE DENVER/BOULDER CO
600 AM MDT FRI JUL 03 2015

NOTE: "FAIR" INDICATES FEW OR NO CLOUDS BELOW 12000 FEET WITH NO
SIGNIFICANT WEATHER AND/OR OBSTRUCTIONS TO VISIBILITY.

COZ001>005-013-030-031-031300-
...NORTHWEST COLORADO...

CITY           SKY/WX    TMP DP  RH WIND       PRES   REMARKS
CRAIG          CLEAR     57  46  66 E6        30.20S
HAYDEN         CLEAR     59  43  55 E9        30.22S
MEEKER         CLEAR     58  46  64 CALM      30.19R
MOUNT WERNER   NOT AVBL
STEAMBOAT SPGS CLEAR     54  44  69 E3        30.25R
WALDEN         CLEAR     41  39  93 CALM      30.36R
$$

COZ006>008-011-031300-
...WEST CENTRAL VALLEYS...

CITY           SKY/WX    TMP DP  RH WIND       PRES   REMARKS
GRAND JUNCTION PTCLDY    69  46  43 CALM      30.04R
MONTROSE       PTCLDY    67  48  50 E8        30.16S
EAGLE          CLOUDY    61  48  63 CALM      30.26F
RIFLE          PTCLDY    65  46  50 N3        30.13R
DELTA          PTCLDY    67  48  50 E3        30.12R
NUCLA          PTCLDY    63  48  59 SE10      30.21R
$$

COZ017>023-064>068-031300-
...SOUTHWEST COLORADO...

CITY           SKY/WX    TMP DP  RH WIND       PRES   REMARKS
DURANGO        CLOUDY    52  48  86 NE3       30.26R
CORTEZ         CLEAR     58  52  80 E3        30.19R
PAGOSA SPRINGS CLOUDY    51  50  99 CALM      30.34S
TELLURIDE      MOCLDY    55  47  75 SE5       30.42S
WOLF CREEK PAS NOT AVBL
$$

COZ009-010-012-014-032>034-037-058>063-031300-
...CENTRAL COLORADO...

CITY           SKY/WX    TMP DP  RH WIND       PRES   REMARKS
ASPEN          MOCLDY    56  44  64 S6        30.30R
BUENA VISTA    MOCLDY    51  46  84 CALM      30.37S
COPPER MTN     CLOUDY    52  37  58 W12       30.62F
BERTHOUD PASS  MOCLDY    41  32  70 NW16G22   30.66S
COTTONWOOD PAS NOT AVBL
GUNNISON       PTCLDY    50  43  76 NE6       30.37R
KREMMLING      MOCLDY    54  43  66 CALM      30.33R
LEADVILLE      CLOUDY    44  44 100 NE3       30.48R
MONARCH PASS   PTCLDY    45  39  81 SW14      30.71R
SALIDA         NOT AVBL
SUNLIGHT       PTCLDY    54  41  62 NE6       30.54S
WILKERSON PASS MOCLDY    46  43  87 W8        30.59R
$$

COZ069>075-031300-
...SAN LUIS VALLEY/SANGRE DE CRISTO MOUNTAINS...

CITY           SKY/WX    TMP DP  RH WIND       PRES   REMARKS
ALAMOSA        FOG       47  45  93 CALM      30.34R VSB 1/2
LA VETA PASS   MOCLDY    45  45 100 MISG      30.48R
SAGUACHE       PTCLDY    50  46  87 NW8       30.37R
$$

COZ035-036-038>040-031300-
...NORTHERN COLORADO FRONT RANGE...

CITY           SKY/WX    TMP DP  RH WIND       PRES   REMARKS
DENVER INTL AP PTCLDY    55  53  93 E7        30.20R
DMNS CITY PARK   N/A     59  58  94 SE3G10    30.20R
AURORA         PTCLDY    56  55  94 SE9       30.21R
FRONT RANGE AP CLEAR     59  55  88 MISG      30.22R
ERIE MUNI ARPT CLOUDY    58  57  97 CALM      30.20R FOG
BOULDER MUN AP PTCLDY    57  57 100 CALM      30.21R
CENTENNIAL     PTCLDY    57  54  89 S3        30.22R
BROOMFIELD     PTCLDY    59  55  88 N7        30.22R
FORT COLLINS   CLEAR     59  55  88 E9        30.21R
LONGMONT       CLEAR     58  55  90 CALM      30.21R
$$

COZ041-046-047-076>085-087-088-031300-
...PIKES PEAK/PALMER DIVIDE AND SOUTHERN FOOTHILLS...

CITY           SKY/WX    TMP DP  RH WIND       PRES   REMARKS
COLO. SPRINGS  PTCLDY    55  50  83 NE8       30.24R
A. F. ACADEMY  PTCLDY    52  52  97 N8        30.25R
ELLICOTT       CLEAR    N/A N/A N/A E3        30.23R
FALCON         CLEAR     55  52  89 CALM      30.29R
FORT CARSON    NOT AVBL
LIMON          CLEAR     56  53  90 E6        30.21R
MONUMENT HILL  NOT AVBL
TRINIDAD       PTCLDY    60  56  86 W8        30.22R
$$

COZ042>045-048>051-090-091-031300-
...NORTHEAST COLORADO...

CITY           SKY/WX    TMP DP  RH WIND       PRES   REMARKS
GREELEY ARPT   CLEAR     57  55  94 CALM      30.18R
AKRON          LGT RAIN  60  59  96 N7        30.15F
BURLINGTON     LGT RAIN  63  59  87 W6        30.15S
WRAY           PTCLDY    60  58  93 W5        30.11S
STERLING       PTCLDY    61  59  94 SE5         N/A
HOLYOKE        MOCLDY    63  59  88 CALM      30.13S
FORT MORGAN    PTCLDY    57  54  89 S6        30.16F
$$

COZ086-089-092>099-031300-
...SOUTHEAST COLORADO...

CITY           SKY/WX    TMP DP  RH WIND       PRES   REMARKS
PUEBLO         CLEAR     59  53  80 CALM      30.15R
LA JUNTA       PTCLDY    62  56  80 N6        30.14R
LAMAR          CLEAR     63  61  93 NW7       30.09R
SPRINGFIELD      N/A     61  60  97 W3        30.13R
$$



USA.gov is the U.S. government's official web portal to all federal, state and local government web resources and services.